Regional Weather Roundup
Issued by NWS

Home | Current Version | Previous Version | Text Only | Print | Product List | Glossary On
Versions: 1 2 3 4 5 6 7 8 9 10 11 12 13 14 15 16 17 18 19 20 21 22 23 24 25 26 27 28 29 30 31 32 33 34 35 36 37 38 39 40 41 42 43 44 45 46 47 48 49 50
000
ASUS43 KLSX 212057
RWRMO

WEATHER SUMMARY FOR MISSOURI
NATIONAL WEATHER SERVICE SPRINGFIELD MO
300 PM CST SAT JAN 21 2017

NOTE: "FAIR" INDICATES FEW OR NO CLOUDS BELOW 12,000 FEET WITH NO
       SIGNIFICANT WEATHER AND/OR OBSTRUCTIONS TO VISIBILITY.
       CURRENT SKY AND/OR WEATHER CONDITIONS ARE NOT AVAILABLE FOR
       CHILLICOTHE AND FARMINGTON.

MOZ001>031-035>038-043-044-053-054-212200-
...NORTHERN AND WESTERN MISSOURI...

CITY           SKY/WX    TMP DP  RH WIND       PRES   REMARKS
KANSAS CTY INT MOSUNNY   54  40  59 SW10      29.48S
LEE`S SUMMIT   CLOUDY    55  40  56 SW8       29.48S
ST JOSEPH      SUNNY     51  44  77 SW9       29.48S
CHILLICOTHE      N/A     49  43  80 S7        29.50S
KIRKSVILLE     PTSUNNY   46  43  87 SW8       29.50S

$$
MOZ066>068-077>081-088>096-101>105-212200-
...SOUTHWEST MISSOURI...

CITY           SKY/WX    TMP DP  RH WIND       PRES   REMARKS
SPRINGFIELD    CLOUDY    63  39  41 S6        29.48F
JOPLIN         CLOUDY    62  37  39 SE5       29.46F
BRANSON        CLOUDY    64  45  48 SE8       29.49F

$$
MOZ032>034-039>042-045>050-055>058-069>072-212200-
...CENTRAL MISSOURI...

CITY           SKY/WX    TMP DP  RH WIND       PRES   REMARKS
COLUMBIA       NOT AVBL
JEFFERSON CITY MOSUNNY   64  36  35 SW6       29.49S
ROLLA          MOSUNNY   65  37  35 SW9       29.48F
SEDALIA        MOSUNNY   59  40  49 SW5       29.50S
WARRENSBURG    MOSUNNY   55  39  54 S5        29.49R

$$
MOZ051-052-059>065-212200-
...EAST CENTRAL MISSOURI...

CITY           SKY/WX    TMP DP  RH WIND       PRES   REMARKS
ST LOUIS INTL  PTSUNNY   72  36  26 SW14      29.49F

$$
MOZ072>076-082>087-097>100-106>115-212200-
...SOUTH CENTRAL AND SOUTHEAST MISSOURI...

CITY           SKY/WX    TMP DP  RH WIND       PRES   REMARKS
CAPE GIRARDEAU PTSUNNY   66  53  63 S12       29.55F
POPLAR BLUFF   CLOUDY    66  56  70 S6        29.53F
WEST PLAINS    PTSUNNY   67  43  41 S7        29.52F

$$



USA.gov is the U.S. government's official web portal to all federal, state and local government web resources and services.